RH
49 47 46 34 38 35 35 34 36 31 27 35 26 26 25 23 23 22 20 18 19 20 18 23 27 30 32 39 40 39 41 48 63 70 74 71 71 70 70 65 63 60 56 58
52 54 39 40 38 39 42 43 39 35 31 39 36 30 24 22 22 21 20 20 23 22 20 22 26 29 32 34 41 42 40 43 56 58 61 55 58 61 61 62 62 57 61 59
44 38 42 42 42 40 45 44 35 38 40 40 42 39 39 25 32 28 25 26 26 27 25 23 25 29 35 36 42 42 41 42 48 52 57 60 62 64 64 66 65 62 62 64
50 45 40 51 43 42 42 37 39 44 47 45 39 40 39 26 22 28 26 24 24 26 26 26 28 28 33 39 46 48 47 44 47 51 57 55 49 53 55 55 58 59 62 59
38 46 51 51 43 42 42 42 45 49 53 57 52 51 38 32 28 23 23 25 28 31 29 29 29 34 34 47 53 55 51 49 48 54 53 55 52 49 51 51 63 63 64 62
46 47 42 36 42 42 42 46 49 61 55 62 45 44 41 32 26 26 21 23 26 29 30 27 32 40 43 50 56 59 55 54 53 55 56 55 53 57 56 60 63 66 64 63
43 42 46 41 43 50 48 45 58 65 76 62 47 54 35 27 26 24 22 23 26 31 33 33 33 40 42 51 56 53 59 56 57 59 58 57 55 58 54 58 58 63 64 62
51 62 40 39 36 40 50 43 59 93 76 56 70 59 42 31 28 28 32 29 32 37 38 41 46 50 51 52 49 51 58 58 57 58 60 60 59 58 53 55 55 57 58 56
56 58 48 44 42 34 48 48 41 63 86 78 50 45 35 37 30 32 33 40 59 59 62 62 59 58 60 61 57 54 53 58 57 58 61 61 60 60 57 58 59 58 57 54
48 80 54 52 47 46 40 41 58 66 83 86 60 61 46 43 45 44 75 82 72 62 58 59 59 59 56 58 58 57 56 55 57 59 60 57 61 60 60 60 59 62 58 58
63 80 74 76 59 49 56 52 50 48 81 93 78 64 46 56 80 88 83 74 64 56 56 57 56 56 55 55 56 57 61 59 60 60 61 64 62 62 63 62 60 59 60 60
68 96 98 78 69 63 59 56 55 85 94 94 83 82 43 68 79 76 68 55 49 46 48 52 56 57 55 56 60 60 60 63 63 62 64 63 61 66 64 60 59 61 60 61
92 99 97 94 74 89 86 76 76 84 99 95 94 80 66 63 73 66 58 57 52 45 43 49 56 59 54 54 61 60 60 68 69 67 68 66 63 63 62 61 60 63 59 60
86 99 97 88 71 93 99 94 90 99 97 86 87 81 56 66 77 77 72 63 56 53 47 53 66 64 53 48 54 61 58 65 72 72 71 70 70 68 63 62 62 62 61 59
92 98 94 94 90 84 88 92 84 89 83 95 75 73 54 74 79 73 75 70 57 51 54 54 69 66 50 51 51 54 56 68 71 75 76 73 74 72 74 74 73 70 70 60
99 98 98 97 80 70 73 66 63 64 68 75 72 71 76 71 63 61 51 76 64 43 47 53 73 68 54 56 58 62 60 68 67 76 82 79 82 79 76 78 77 75 74 70
98 98 89 89 76 85 95 73 59 55 50 56 70 84 94 87 70 67 63 69 69 50 50 59 69 65 60 63 64 65 72 72 72 78 77 83 86 79 77 81 80 79 77 73
94 97 96 93 95 95 59 76 76 76 92 95 90 89 81 71 65 65 60 66 49 52 54 64 75 64 62 67 70 67 75 72 75 80 77 76 75 72 83 86 84 80 78 79
88 81 96 94 81 62 53 59 62 69 75 91 80 82 64 66 78 73 51 44 50 62 65 75 73 70 72 75 71 82 77 70 71 70 70 72 76 80 85 88 85 82 83 83
68 87 86 96 98 99 62 46 53 70 86 89 90 80 78 82 93 59 44 47 62 66 68 71 68 68 68 66 68 87 64 67 69 66 65 69 77 82 80 76 85 83 85 84
86 94 95 91 94 89 75 66 56 81 66 79 80 74 78 86 69 54 57 63 66 67 67 66 64 58 51 54 81 71 66 68 66 71 69 70 74 77 76 77 78 85 86 85
71 87 95 100 98 90 58 52 56 59 58 63 66 58 55 52 60 67 64 62 59 64 58 53 56 53 47 51 74 72 68 61 75 75 72 74 76 76 75 77 77 83 89 91
84 67 75 69 69 52 50 58 45 45 63 55 63 55 61 62 66 63 63 64 60 58 56 55 68 67 57 63 80 79 68 71 76 79 76 75 74 76 77 80 79 79 85 92
68 53 58 59 45 47 39 36 38 47 52 48 50 56 60 66 64 68 65 63 61 66 70 71 80 75 71 66 72 74 73 75 81 83 77 75 77 77 76 75 74 79 86 88
62 68 72 65 48 46 44 42 40 39 44 51 56 67 71 72 68 65 68 73 68 66 66 69 72 74 73 68 69 69 72 77 82 82 77 76 76 78 78 77 78 77 77 85
57 60 67 70 45 44 40 38 44 49 56 71 71 75 76 76 73 68 70 64 65 67 68 72 71 71 70 71 72 71 72 77 82 84 77 75 76 76 76 79 79 73 72 71
Wind_Speed
1 4 9 16 15 2 3 5 7 8 9 4 22 18 15 16 16 23 24 21 14 15 17 6 8 9 8 7 10 14 14 16 14 13 12 10 14 12 10 11 15 16 14 15
4 8 16 2 4 7 7 9 14 8 10 4 12 20 20 23 20 20 24 19 10 11 14 12 8 8 8 8 9 11 15 16 16 12 12 7 11 10 9 9 11 14 15 15
10 6 4 7 5 8 5 7 11 10 7 6 8 9 4 8 5 7 13 8 9 7 11 11 9 8 9 9 8 10 12 14 14 15 10 4 5 4 7 9 10 12 16 16
7 4 7 4 7 8 9 10 11 6 4 4 5 12 5 9 11 2 7 7 8 7 4 5 9 13 10 9 6 6 7 10 11 13 12 17 12 10 10 11 10 11 15 16
8 5 4 5 10 8 11 1 2 2 3 4 3 5 7 3 6 7 5 5 2 2 7 7 15 12 13 11 10 5 2 2 6 9 12 12 13 9 3 7 13 12 10 11
8 3 5 8 4 6 3 3 5 4 2 6 11 9 1 4 5 2 9 2 3 5 11 15 13 9 10 10 8 7 4 3 2 3 6 10 12 4 5 7 10 9 9 10
1 5 3 2 1 2 2 5 4 5 1 9 3 3 6 5 5 5 6 10 8 9 8 16 20 18 15 14 11 7 8 5 4 1 3 5 7 5 8 10 8 11 10 9
3 18 8 6 8 8 7 9 6 7 7 12 3 11 7 8 2 6 2 4 7 20 17 17 17 16 19 20 17 14 11 8 6 4 2 3 4 3 4 5 5 8 9 11
5 12 1 5 4 8 5 7 5 2 3 2 8 13 15 5 6 7 11 17 17 15 15 16 18 19 18 19 21 18 13 9 6 5 5 5 4 5 5 5 4 5 7 7
3 8 7 3 2 4 8 3 1 1 3 9 7 5 15 7 9 14 15 13 14 15 16 14 13 13 14 15 15 17 15 14 11 9 5 5 5 6 6 5 10 10 9 8
4 6 8 3 6 8 1 4 4 3 5 6 7 9 4 9 12 8 5 7 9 11 11 11 12 12 14 14 16 14 15 16 16 14 11 8 8 7 6 8 9 9 8 10
6 6 8 13 7 3 3 7 8 6 8 6 6 8 14 13 11 9 9 11 11 10 11 11 10 11 12 12 13 14 15 14 14 15 14 11 10 7 8 10 10 9 11 10
2 4 5 5 3 3 3 3 6 5 2 12 12 5 12 10 13 11 10 10 9 10 13 11 10 10 10 10 10 11 12 11 13 14 14 16 15 12 10 10 10 9 11 12
2 4 13 15 13 4 7 7 4 5 8 11 9 8 11 6 12 9 7 7 7 8 9 9 10 13 13 11 10 9 10 10 10 12 11 12 14 15 15 12 10 9 10 12
5 10 9 13 13 4 7 10 16 16 16 13 15 21 23 0 3 6 4 5 7 6 7 11 11 10 11 12 14 13 11 11 12 12 10 12 11 12 12 12 12 10 8 12
2 4 1 5 11 14 17 18 19 18 17 14 18 22 7 3 3 4 6 3 9 9 9 8 7 7 10 11 12 13 13 14 14 11 11 10 12 13 13 13 12 11 10 11
3 3 8 20 7 4 7 15 14 14 18 12 16 3 1 2 4 5 5 5 6 7 9 8 8 7 8 10 9 10 11 11 11 11 12 11 11 15 15 14 14 11 12 12
9 8 5 9 4 20 7 4 0 5 2 5 6 3 5 6 4 6 8 6 6 6 9 9 7 9 9 9 9 9 9 10 11 10 11 12 14 16 15 15 15 15 10 12
17 12 5 8 14 13 17 4 5 5 5 5 5 3 4 4 3 7 9 9 6 7 9 9 6 8 9 10 9 7 10 10 10 11 12 13 13 15 15 15 16 16 14 12
9 13 11 2 5 7 3 2 1 4 5 7 6 6 5 1 3 11 8 6 8 8 8 9 8 9 9 11 8 8 10 11 12 11 12 13 13 15 16 16 15 14 13 15
3 3 12 12 8 7 6 5 3 7 7 5 6 9 7 6 11 12 5 7 7 8 9 7 7 11 13 8 4 10 11 13 11 9 12 13 12 14 15 16 15 15 14 13
5 4 4 3 2 9 5 2 5 6 5 6 6 10 8 10 12 13 14 11 8 8 11 11 10 12 13 11 7 12 15 13 8 10 13 14 14 12 13 16 16 16 14 14
5 7 6 11 8 5 5 7 12 12 9 12 5 9 8 11 11 13 12 7 8 9 10 10 10 15 16 14 7 13 16 11 10 11 16 17 16 14 13 14 16 14 13 10
7 7 10 13 11 13 14 17 14 8 12 10 8 8 7 10 12 9 8 9 10 11 11 9 8 14 18 16 12 12 13 11 10 14 17 17 17 17 16 12 12 12 12 11
9 4 6 14 14 13 16 16 17 15 11 8 6 2 3 3 6 6 11 11 12 13 12 11 13 15 19 17 18 15 15 12 14 16 18 18 14 16 16 14 12 12 14 14
11 17 11 15 16 14 19 17 7 6 4 4 3 3 1 2 7 9 11 11 12 15 15 15 16 17 19 19 20 19 17 15 16 18 15 14 13 13 13 14 15 23 29 33
Wind_Direction
46 121 203 218 207 267 284 241 253 260 258 310 285 279 277 272 261 272 276 275 277 274 278 306 274 260 248 233 211 205 196 199 183 188 183 192 201 197 196 196 191 185 184 181
56 218 227 117 166 226 249 271 270 277 269 181 269 283 281 264 270 254 267 282 284 287 316 310 307 295 274 257 229 211 204 194 195 195 196 199 194 209 207 197 195 190 184 183
197 219 164 191 193 247 211 230 262 256 327 253 309 274 232 273 253 252 262 279 276 281 298 312 316 289 280 280 253 223 220 200 198 193 176 117 106 111 180 196 189 193 186 181
230 271 193 166 214 187 265 233 253 275 357 260 25 293 209 256 267 348 295 302 302 318 316 309 304 337 335 299 303 239 214 204 196 184 189 195 200 188 196 193 197 197 194 189
249 178 181 175 219 149 229 178 241 167 198 345 324 293 258 213 278 259 242 194 209 322 269 284 355 349 339 341 340 329 191 193 211 204 195 200 212 219 159 175 178 185 190 197
241 324 203 221 221 197 115 82 48 49 67 279 205 191 288 189 207 302 348 354 85 356 10 359 10 341 333 357 349 17 26 105 99 217 231 222 228 211 171 174 178 182 176 177
306 225 278 182 189 34 90 69 323 328 13 234 342 255 235 247 266 19 305 322 12 11 347 13 4 360 2 7 12 21 36 16 360 237 278 270 260 235 205 189 193 176 175 188
199 287 183 175 203 192 187 170 195 221 260 274 90 258 263 230 300 356 32 257 16 19 12 17 12 15 11 9 13 21 25 359 354 320 289 288 276 266 266 258 214 194 204 199
200 265 242 212 167 165 163 189 209 267 51 335 249 274 296 188 72 17 9 36 43 39 25 17 13 15 15 17 21 14 9 358 353 325 307 277 251 235 227 221 216 219 211 205
350 306 211 288 77 258 180 155 152 334 227 238 261 247 244 16 45 41 37 21 14 16 22 24 27 20 16 14 17 19 16 13 351 333 305 281 261 250 240 209 207 198 201 191
145 195 266 2 199 200 140 244 231 288 171 229 248 242 219 65 84 93 58 38 20 21 17 16 14 18 16 14 15 10 8 10 6 3 345 306 282 254 241 223 222 225 204 192
209 201 224 263 257 241 236 231 185 216 217 218 247 245 280 95 70 85 52 34 28 23 11 8 7 8 12 12 8 7 0 2 360 352 349 344 313 272 251 244 238 218 213 203
287 215 295 268 266 50 212 257 250 277 222 241 264 266 1 32 49 50 59 42 32 16 2 357 3 7 5 6 6 2 355 356 351 348 347 345 347 335 298 268 251 226 225 214
29 256 245 254 270 326 258 221 260 237 260 275 252 289 297 5 346 23 28 24 13 1 349 346 351 353 352 356 357 356 348 351 345 344 343 341 342 336 331 310 282 249 229 230
210 257 249 261 266 298 285 288 275 271 273 264 283 286 277 207 353 327 310 331 331 356 354 340 338 340 341 345 348 348 344 344 344 335 338 333 333 332 332 320 297 270 239 236
280 271 225 254 278 280 275 270 269 273 274 266 261 261 76 126 252 277 297 310 329 338 331 332 313 331 331 337 340 333 336 340 341 333 323 330 329 333 332 324 318 308 279 254
244 281 268 270 284 306 259 245 259 258 261 260 259 270 191 254 261 277 307 272 284 308 312 305 314 327 321 322 322 318 322 331 322 321 329 329 330 331 330 327 320 309 293 271
241 248 255 274 31 264 289 46 307 232 77 122 110 153 216 235 243 275 275 235 257 280 298 295 303 305 302 302 306 309 315 316 317 322 329 329 333 325 320 324 320 308 288 261
216 233 255 246 250 284 293 233 187 177 252 184 166 228 254 276 334 267 239 224 249 258 263 254 251 266 278 282 288 294 307 310 314 316 319 321 323 315 314 312 309 308 298 285
211 226 238 143 225 223 250 210 48 108 282 218 180 237 244 143 247 270 229 235 242 251 266 279 280 277 276 277 276 278 295 300 300 307 313 315 312 304 306 305 296 295 289 279
6 358 225 236 245 283 228 223 141 94 263 219 193 228 220 211 239 261 228 246 243 245 259 260 268 275 280 281 256 273 284 282 289 300 308 303 298 297 299 298 298 288 287 285
192 181 206 67 27 273 185 135 162 212 250 237 217 232 243 265 265 256 262 265 271 288 296 296 289 286 289 291 274 280 280 288 284 292 294 292 294 294 294 291 290 287 280 276
278 189 198 195 211 220 202 217 270 276 251 269 233 261 230 254 261 264 262 273 286 281 278 289 287 290 290 289 272 272 282 293 292 290 294 295 294 288 283 282 287 287 274 263
242 180 241 264 242 247 266 274 274 264 248 262 260 253 261 256 265 277 292 293 290 289 287 290 280 283 288 294 289 281 293 299 294 289 291 293 292 293 290 282 277 278 273 266
234 174 250 257 259 268 263 256 259 269 274 275 290 285 297 303 299 301 293 295 296 298 303 304 296 292 290 299 298 301 302 303 292 287 290 290 285 284 285 274 274 275 275 261
233 250 245 255 258 250 264 270 265 237 253 52 12 340 23 326 300 304 295 302 304 305 312 307 302 300 299 301 299 301 302 299 293 289 289 285 286 284 282 283 284 271 274 274